Zorg en Hoop Airport

Jump to: basic info | weather | comments

Related pages: nearby airports | nearby navaids | notams | map

Basic information (top)

Codes: ORG SMZO
Location: lon 5.811080, lat -55.190701, elev 10 ft / 3 m msl
Status: small_airport

Weather (top)

Current conditions (rec'd 2014/09/01 23:00Z):

SMZO 012300Z 04006KT 9999 SCT020 28/24 Q1012 NOSIG

Airport forecast (rec'd 2014/08/27 12:12Z):

TAF TAF SMZO 261000Z 2712/2812 12012KT 9999 SCT020 TX33/2718Z TN25/2810Z 
      BECMG 2800/2802 09005KT

Latest comments (top)

KLM flights from Caracas - Paramaribo - Dakar - Madrid - fra: I would like to know if this airport ... [read]

More... (top)

See also NOTAMs and nearby airports and navaids, or visit the Zorg en Hoop Airport page at the main OurAirports website..